sat.trackr.live / text

‹ back to catalog

STARLINK-36959

NORAD 68060 · 2026-041W

PAYLOAD ACTIVE UNKNOWN

§ Identity

Operator
Country
US
Launch date
2026-03-02
Launch site
AFETR
Launch vehicle
Mass (kg)
RCS (m²)

Purposes: comms

External: N2YO · Heavens-Above · Gunter

§ Orbital elements

Epoch: 2026-05-25T01:02:11.316192Z

Period
93.85 min
Inclination
53.1575°
Eccentricity
0.0000996
Mean motion
15.34393754 rev/d
Perigee alt
462.0 km
Apogee alt
463.4 km
Semi-major
6,840.9 km
B*
5.3857e-4
RAAN
53.4283°
Arg perigee
61.4730°
Mean anomaly
298.6372°
Rev number
1,310

§ Raw data

STARLINK-369591 68060U 26041W   26145.04318653  .00017860  00000+0  53857-3 0  99932 68060  53.1575  53.4283 0000996  61.4730 298.6372 15.34393754 13104

JSON: /api/v1/satellites/68060 · /tle

For live sub-satellite position, see the globe view (requires WebGL).

§ Visibility from observer

Set your observer location to see the next 7 days of passes ≥ 10°. The values pass through the URL so the page stays shareable.

No JS? Fill the form by hand. The geolocation button needs JavaScript.